CW9861 Weather Reports


Display with metric or nautical units.
time (UTC)temp
F
wind
direction
speed
MPH
gust
MPH
rain 1hr
in
rain 24hr
in
rain mn
in
humidity
%
barometer
mb
20260502150458 42 307 4.0 10.0 0.00 0.00 0.00 57 1017.1
20260502130500 40 354 2.0 5.0 0.00 0.00 0.00 73 1017.4
20260502123459 33 291 2.0 4.0 0.00 0.00 0.00 89 1017.5
20260502122959 33 314 1.0 5.0 0.00 0.00 0.00 89 1017.6
20260502122458 32 320 2.0 5.0 0.00 0.00 0.00 89 1017.6
20260502121959 32 225 2.0 4.0 0.00 0.00 0.00 89 1017.6
20260502121458 31 326 2.0 4.0 0.00 0.00 0.00 89 1017.5
20260502120958 31 326 1.0 3.0 0.00 0.00 0.00 89 1017.5
20260502120459 30 286 1.0 2.0 0.00 0.00 0.00 89 1017.5
20260502115459 29 276 1.0 3.0 0.00 0.00 0.00 88 1017.5
20260502114958 29 276 1.0 3.0 0.00 0.00 0.00 88 1017.5
20260502114500 29 315 1.0 2.0 0.00 0.00 0.00 88 1017.5
20260502113958 28 311 0.0 1.0 0.00 0.00 0.00 88 1017.5
20260502113458 28 311 0.0 1.0 0.00 0.00 0.00 87 1017.4
20260502112959 28 311 0.0 1.0 0.00 0.00 0.00 87 1017.4
20260502112458 28 311 0.0 0.0 0.00 0.00 0.00 87 1017.3
20260502112000 28 311 0.0 0.0 0.00 0.00 0.00 87 1017.3
20260502111458 28 311 0.0 0.0 0.00 0.00 0.00 87 1017.3
20260502110958 28 311 0.0 0.0 0.00 0.00 0.00 87 1017.3
20260502110500 28 311 0.0 0.0 0.00 0.00 0.00 86 1017.3
20260502105959 28 311 0.0 0.0 0.00 0.00 0.00 86 1017.1
20260502105459 27 311 0.0 0.0 0.00 0.00 0.00 86 1017.1
20260502104959 27 311 0.0 0.0 0.00 0.00 0.00 85 1017.1
20260502104458 27 311 0.0 0.0 0.00 0.00 0.00 85 1017.1
20260502103958 28 311 0.0 0.0 0.00 0.00 0.00 85 1017.1
20260502103458 28 311 0.0 0.0 0.00 0.00 0.00 85 1017.1
20260502103000 28 311 0.0 0.0 0.00 0.00 0.00 85 1017.1
20260502102458 28 311 0.0 0.0 0.00 0.00 0.00 85 1017.1
20260502102000 28 311 0.0 0.0 0.00 0.00 0.00 85 1017.2
20260502091458 29 311 0.0 0.0 0.00 0.00 0.00 81 1016.8
20260502090959 29 311 0.0 0.0 0.00 0.00 0.00 81 1016.8
20260502090459 30 311 0.0 0.0 0.00 0.00 0.00 81 1016.7
20260502071457 33 311 0.0 0.0 0.00 0.00 0.00 77 1016.6
20260502070956 33 311 0.0 0.0 0.00 0.00 0.00 77 1016.7
20260502070456 33 311 0.0 0.0 0.00 0.00 0.00 77 1016.5
20260502065956 33 311 0.0 0.0 0.00 0.00 0.00 76 1016.5
20260502065457 33 311 0.0 0.0 0.00 0.00 0.00 76 1016.5
20260502064956 33 311 0.0 1.0 0.00 0.00 0.00 76 1016.5
20260502064456 33 311 0.0 1.0 0.00 0.00 0.00 76 1016.6
20260502063956 34 311 0.0 2.0 0.00 0.00 0.00 76 1016.7
20260502063457 34 311 0.0 2.0 0.00 0.00 0.00 76 1016.7
20260502062956 34 311 0.0 0.0 0.00 0.00 0.00 75 1016.7
20260502062456 34 311 0.0 0.0 0.00 0.00 0.00 75 1016.8
20260502061956 34 311 0.0 0.0 0.00 0.00 0.00 75 1016.7
20260502061457 34 311 0.0 0.0 0.00 0.00 0.00 74 1016.7
20260502060957 34 311 0.0 0.0 0.00 0.00 0.00 74 1016.6
20260502060456 34 311 0.0 0.0 0.00 0.00 0.00 74 1016.6
20260502055959 34 311 0.0 0.0 0.00 0.00 0.00 73 1016.8
20260502055457 34 311 0.0 0.0 0.00 0.00 0.00 73 1016.8
20260502054958 34 311 0.0 0.0 0.00 0.00 0.00 73 1016.8
20260502054458 34 311 0.0 0.0 0.00 0.00 0.00 73 1016.6
20260502053957 34 311 0.0 0.0 0.00 0.00 0.00 72 1016.6
20260502053458 34 311 0.0 0.0 0.00 0.00 0.00 72 1016.5
20260502052957 34 311 0.0 1.0 0.00 0.00 0.00 72 1016.6
20260502052459 35 311 0.0 2.0 0.00 0.00 0.00 72 1016.5
20260502051958 35 310 0.0 2.0 0.00 0.00 0.00 72 1016.5
20260502051458 35 286 0.0 1.0 0.00 0.00 0.00 71 1016.5
20260502050958 35 286 0.0 1.0 0.00 0.00 0.00 70 1016.5
20260502050457 35 286 0.0 1.0 0.00 0.00 0.00 70 1016.4
20260502045959 36 286 0.0 1.0 0.00 0.00 0.00 70 1016.5
20260502045456 36 286 0.0 1.0 0.00 0.00 0.00 70 1016.4
20260502044957 36 286 0.0 2.0 0.00 0.00 0.00 70 1016.5
20260502044457 36 290 0.0 2.0 0.00 0.00 0.00 70 1016.4
20260502043957 36 288 0.0 3.0 0.00 0.00 0.00 69 1016.4
20260502043456 36 310 1.0 3.0 0.00 0.00 0.00 69 1016.4
20260502042958 36 333 0.0 3.0 0.00 0.00 0.00 69 1016.3
20260502042457 37 332 1.0 4.0 0.00 0.00 0.00 69 1016.3
20260502041957 37 320 1.0 2.0 0.00 0.00 0.00 69 1016.2
20260502041456 37 312 0.0 2.0 0.00 0.00 0.00 68 1016.3
20260502040956 37 312 0.0 2.0 0.00 0.00 0.00 68 1016.3
20260502040457 37 318 0.0 2.0 0.00 0.00 0.00 67 1016.3
20260502035957 37 297 1.0 2.0 0.00 0.00 0.00 67 1016.4
20260502035457 37 309 0.0 2.0 0.00 0.00 0.00 67 1016.3
20260502034958 38 310 0.0 3.0 0.00 0.00 0.00 66 1016.2
20260502034457 38 310 1.0 3.0 0.00 0.00 0.00 66 1016.2
20260502033957 38 297 0.0 3.0 0.00 0.00 0.00 66 1016.3
20260502033457 38 306 1.0 3.0 0.00 0.00 0.00 66 1016.2
20260502032957 38 315 1.0 4.0 0.00 0.00 0.00 65 1016.3
20260502032457 38 299 1.0 4.0 0.00 0.00 0.00 65 1016.3
20260502031957 38 297 0.0 2.0 0.00 0.00 0.00 65 1016.2
20260502031457 38 284 1.0 5.0 0.00 0.00 0.00 64 1016.3
20260502030957 38 329 2.0 3.0 0.00 0.00 0.00 64 1016.3
20260502030457 38 289 1.0 3.0 0.00 0.00 0.00 64 1016.3
20260502025959 38 286 1.0 4.0 0.00 0.00 0.00 64 1016.2
20260502025459 38 318 2.0 4.0 0.00 0.00 0.00 63 1016.2
20260502024958 38 316 1.0 3.0 0.00 0.00 0.00 63 1016.0
20260502024459 39 291 2.0 4.0 0.00 0.00 0.00 62 1016.2
20260502020458 40 266 1.0 5.0 0.00 0.00 0.00 59 1016.0
20260502015959 40 262 3.0 5.0 0.00 0.00 0.00 59 1015.9
20260502015456 40 310 3.0 6.0 0.00 0.00 0.00 58 1015.8
20260502014957 40 336 3.0 7.0 0.00 0.00 0.00 58 1015.8
20260502014458 40 323 1.0 9.0 0.00 0.00 0.00 57 1015.7
20260502013957 41 311 2.0 9.0 0.00 0.00 0.00 57 1015.7
20260502013457 41 313 4.0 9.0 0.00 0.00 0.00 57 1015.7
20260502012957 41 2 3.0 8.0 0.00 0.00 0.00 58 1015.7
20260502012458 41 322 2.0 7.0 0.00 0.00 0.00 59 1015.6
20260502011957 41 325 1.0 2.0 0.00 0.00 0.00 60 1015.5
20260502011457 41 321 0.0 3.0 0.00 0.00 0.00 60 1015.4
20260502010957 41 321 0.0 3.0 0.00 0.00 0.00 59 1015.4
20260502010457 41 322 1.0 2.0 0.00 0.00 0.00 59 1015.5
20260502010000 41 322 0.0 3.0 0.00 0.00 0.00 59 1015.4
20260502005458 42 322 0.0 3.0 0.00 0.00 0.00 59 1015.3
20260502004959 42 360 1.0 6.0 0.00 0.00 0.00 58 1015.3
20260502004458 42 327 1.0 6.0 0.00 0.00 0.00 57 1015.2
20260502003958 42 320 1.0 5.0 0.00 0.00 0.00 57 1015.1
20260502003458 42 317 1.0 5.0 0.00 0.00 0.00 57 1015.1
20260502002959 42 313 3.0 5.0 0.00 0.00 0.00 56 1015.0
20260502002459 42 314 3.0 8.0 0.00 0.00 0.00 56 1015.0
20260502001958 42 328 2.0 8.0 0.00 0.00 0.00 56 1014.9
20260502001458 42 311 2.0 9.0 0.00 0.00 0.00 55 1014.9
20260502000958 42 337 4.0 12.0 0.00 0.00 0.00 55 1014.9
20260502000458 43 316 3.0 12.0 0.00 0.00 0.00 55 1014.9
20260501235958 43 256 3.0 7.0 0.00 0.00 0.00 54 1014.8
20260501235457 43 301 3.0 8.0 0.00 0.00 0.00 53 1014.7
20260501234957 43 280 3.0 6.0 0.00 0.00 0.00 54 1014.6
20260501234457 43 261 1.0 5.0 0.00 0.00 0.00 54 1014.6
20260501233957 43 314 3.0 6.0 0.00 0.00 0.00 53 1014.6
20260501233457 43 324 3.0 7.0 0.00 0.00 0.00 52 1014.6
20260501232957 43 304 3.0 9.0 0.00 0.00 0.00 53 1014.6
20260501232456 44 22 4.0 9.0 0.00 0.00 0.00 54 1014.5
20260501231957 44 252 4.0 9.0 0.00 0.00 0.00 54 1014.5
20260501231458 44 280 4.0 10.0 0.00 0.00 0.00 54 1014.5
20260501230957 44 340 4.0 11.0 0.00 0.00 0.00 53 1014.4
20260501230458 45 271 6.0 11.0 0.00 0.00 0.00 53 1014.4
20260501225959 45 240 3.0 7.0 0.00 0.00 0.00 53 1014.3
20260501225458 45 311 2.0 7.0 0.00 0.00 0.00 52 1014.2
20260501224959 45 290 3.0 10.0 0.00 0.00 0.00 51 1014.2
20260501224458 46 344 4.0 11.0 0.00 0.00 0.00 51 1014.2
20260501223959 46 249 3.0 8.0 0.00 0.00 0.00 52 1014.3
20260501223458 45 259 3.0 6.0 0.00 0.00 0.00 50 1014.2
20260501222959 46 313 2.0 7.0 0.00 0.00 0.00 53 1014.2
20260501222458 45 315 2.0 9.0 0.00 0.00 0.00 53 1014.2
20260501214957 45 282 4.0 11.0 0.00 0.00 0.00 53 1014.0
20260501214457 45 302 3.0 12.0 0.00 0.00 0.00 54 1014.0
20260501213958 45 333 4.0 12.0 0.00 0.00 0.00 53 1013.9
20260501213457 45 297 3.0 5.0 0.00 0.00 0.00 53 1014.0
20260501212957 45 293 2.0 6.0 0.00 0.00 0.00 55 1013.8
20260501212456 45 309 3.0 6.0 0.00 0.00 0.00 54 1013.8
20260501211957 45 302 2.0 5.0 0.00 0.00 0.00 54 1013.8
20260501211458 45 331 3.0 6.0 0.00 0.00 0.00 53 1013.7
20260501210957 45 243 2.0 7.0 0.00 0.00 0.00 56 1013.7
20260501210457 45 317 1.0 9.0 0.00 0.00 0.00 56 1013.7
20260501210000 45 259 3.0 9.0 0.00 0.00 0.00 55 1013.8
20260501205458 45 307 2.0 6.0 0.00 0.00 0.00 57 1013.8
20260501204959 46 343 2.0 6.0 0.00 0.00 0.00 55 1013.8
20260501204458 45 27 1.0 5.0 0.00 0.00 0.00 57 1013.8
20260501203958 46 357 3.0 6.0 0.00 0.00 0.00 54 1013.8
20260501203458 46 271 3.0 6.0 0.00 0.00 0.00 56 1013.7
20260501202958 46 276 2.0 6.0 0.00 0.00 0.00 55 1013.7
20260501202458 46 305 2.0 8.0 0.00 0.00 0.00 55 1013.8
20260501201958 46 322 2.0 11.0 0.00 0.00 0.00 60 1013.8
20260501194458 46 307 2.0 9.0 0.00 0.00 0.00 59 1013.8
20260501193956 45 280 3.0 9.0 0.00 0.00 0.00 58 1013.8
20260501193457 45 353 1.0 8.0 0.00 0.00 0.00 58 1013.6
20260501192957 45 330 2.0 6.0 0.00 0.00 0.00 57 1013.6
20260501192457 45 345 2.0 4.0 0.00 0.00 0.00 57 1013.6
20260501191957 45 302 1.0 4.0 0.00 0.00 0.00 57 1013.6
20260501191457 45 280 1.0 4.0 0.00 0.00 0.00 58 1013.6
20260501190957 45 12 1.0 5.0 0.00 0.00 0.00 59 1013.7
20260501190457 45 349 3.0 5.0 0.00 0.00 0.00 56 1013.6
20260501185957 45 283 1.0 6.0 0.00 0.00 0.00 58 1013.6
20260501185457 45 306 3.0 6.0 0.00 0.00 0.00 57 1013.6
20260501184957 45 37 2.0 4.0 0.00 0.00 0.00 57 1013.6
20260501184458 45 351 3.0 5.0 0.00 0.00 0.00 57 1013.4
20260501183957 45 311 3.0 6.0 0.00 0.00 0.00 58 1013.4
20260501183456 45 353 3.0 9.0 0.00 0.00 0.00 59 1013.5
20260501182957 45 22 3.0 8.0 0.00 0.00 0.00 59 1013.4
20260501182457 45 341 2.0 6.0 0.00 0.00 0.00 58 1013.5
20260501181957 46 311 3.0 10.0 0.00 0.00 0.00 61 1013.5
20260501181457 45 342 3.0 10.0 0.00 0.00 0.00 60 1013.4
20260501180957 45 280 4.0 9.0 0.00 0.00 0.00 60 1013.4
20260501180457 45 297 3.0 6.0 0.00 0.00 0.00 60 1013.5
20260501180001 45 349 3.0 6.0 0.00 0.00 0.00 61 1013.5
20260501175459 45 236 1.0 9.0 0.00 0.00 0.00 61 1013.5
20260501174958 45 349 3.0 9.0 0.00 0.00 0.00 59 1013.5
20260501174458 45 261 1.0 3.0 0.00 0.00 0.00 61 1013.5
20260501173957 45 285 1.0 4.0 0.00 0.00 0.00 62 1013.5
20260501173457 45 340 2.0 8.0 0.00 0.00 0.00 61 1013.5
20260501172958 45 311 2.0 6.0 0.00 0.00 0.00 60 1013.4
20260501172457 45 320 2.0 6.0 0.00 0.00 0.00 61 1013.4
20260501171958 45 312 0.0 5.0 0.00 0.00 0.00 61 1013.4
20260501171457 45 46 2.0 4.0 0.00 0.00 0.00 59 1013.4
20260501170957 46 305 2.0 4.0 0.00 0.00 0.00 62 1013.5
20260501170459 46 177 1.0 5.0 0.00 0.00 0.00 58 1013.5
20260501165957 46 271 3.0 7.0 0.00 0.00 0.00 63 1013.5
20260501165456 47 281 4.0 7.0 0.00 0.00 0.00 60 1013.7
20260501164957 47 298 2.0 5.0 0.00 0.00 0.00 62 1013.6
20260501164458 46 216 2.0 7.0 0.00 0.00 0.00 59 1013.7
20260501163957 46 351 2.0 7.0 0.00 0.00 0.00 63 1013.8
20260501163457 45 335 2.0 6.0 0.00 0.00 0.00 62 1013.8
20260501162956 45 60 2.0 8.0 0.00 0.00 0.00 60 1014.0
20260501162457 45 332 4.0 10.0 0.00 0.00 0.00 59 1014.0
20260501161957 45 290 4.0 10.0 0.00 0.00 0.00 64 1014.0
20260501161456 44 31 1.0 7.0 0.00 0.00 0.00 64 1014.0
20260501160957 44 253 2.0 4.0 0.00 0.00 0.00 65 1014.0
20260501160457 45 174 1.0 5.0 0.00 0.00 0.00 68 1014.1
20260501152957 43 266 2.0 7.0 0.00 0.00 0.00 62 1013.9